When you browse on this site, cookies collect data to enhance your experience and personalize the content and advertising you see.
Visit our Privacy Policy to learn more. By continuing to use the site, you agree to this use of cookies and data.
  • In Hungary
  • List of Countries
  • For 7 days
  • Water Temperature
  • Weather Map
  • News
  • Weather Widgets
  • user-avatar
    Login

    Hourly Weather Ryumino

    Today, 25 February, Tuesday

    Time Temperature Precipitation Wind Pressure Humidity
    00:00 0°C° 0 mm 1 mps 734 mmHg 96%
    01:00 0°C° 0 mm 1 mps 734 mmHg 96%
    02:00 -1°C° 0 mm 1 mps 734 mmHg 96%
    03:00 -1°C° 0 mm 1 mps 733 mmHg 97%
    04:00 -3°C° 0.1 mm 2 mps 733 mmHg 97%
    05:00 -3°C° 0.1 mm 2 mps 733 mmHg 96%
    06:00 -3°C° 0.1 mm 2 mps 732 mmHg 95%
    07:00 -4°C° 0 mm 3 mps 732 mmHg 95%
    08:00 -4°C° 0 mm 3 mps 732 mmHg 95%
    09:00 -2°C° 0 mm 3 mps 732 mmHg 94%
    10:00 -3°C° 0.1 mm 4 mps 732 mmHg 95%
    11:00 -4°C° 0.1 mm 5 mps 732 mmHg 95%
    12:00 -3°C° 0.1 mm 6 mps 732 mmHg 95%
    13:00 -3°C° 0 mm 6 mps 733 mmHg 91%
    14:00 -3°C° 0 mm 6 mps 733 mmHg 86%
    15:00 -2°C° 0 mm 5 mps 733 mmHg 81%
    16:00 -2°C° 0 mm 5 mps 734 mmHg 81%
    17:00 -4°C° 0 mm 5 mps 734 mmHg 80%
    18:00 -5°C° 0 mm 5 mps 735 mmHg 80%
    19:00 -5°C° 0 mm 4 mps 736 mmHg 82%
    20:00 -7°C° 0 mm 4 mps 736 mmHg 84%
    21:00 -7°C° 0 mm 3 mps 737 mmHg 86%
    22:00 -7°C° 0 mm 3 mps 737 mmHg 86%
    23:00 -7°C° 0 mm 3 mps 737 mmHg 86%

    Tomorrow, 26 February, Wednesday

    Time Temperature Precipitation Wind Pressure Humidity
    00:00 -7°C° 0 mm 3 mps 737 mmHg 86%
    01:00 -7°C° 0 mm 3 mps 738 mmHg 87%
    02:00 -8°C° 0 mm 3 mps 738 mmHg 87%
    03:00 -8°C° 0 mm 3 mps 738 mmHg 88%
    04:00 -8°C° 0 mm 3 mps 738 mmHg 88%
    05:00 -8°C° 0 mm 3 mps 738 mmHg 88%
    06:00 -8°C° 0 mm 2 mps 738 mmHg 88%
    07:00 -8°C° 0 mm 3 mps 738 mmHg 87%
    08:00 -8°C° 0 mm 3 mps 739 mmHg 86%
    09:00 -7°C° 0 mm 3 mps 739 mmHg 85%
    10:00 -7°C° 0 mm 4 mps 738 mmHg 86%
    11:00 -5°C° 0 mm 4 mps 738 mmHg 86%
    12:00 -3°C° 0 mm 4 mps 738 mmHg 86%
    13:00 -4°C° 0 mm 5 mps 738 mmHg 87%
    14:00 -2°C° 0 mm 5 mps 737 mmHg 89%
    15:00 -3°C° 0 mm 6 mps 737 mmHg 90%
    16:00 -3°C° 0.3 mm 6 mps 737 mmHg 93%
    17:00 -3°C° 0.3 mm 6 mps 736 mmHg 95%
    18:00 -3°C° 0.3 mm 6 mps 736 mmHg 97%
    19:00 -3°C° 0.6 mm 6 mps 736 mmHg 97%
    20:00 -1°C° 0.6 mm 5 mps 736 mmHg 97%
    21:00 -1°C° 0.6 mm 5 mps 735 mmHg 97%
    22:00 -1°C° 0.1 mm 5 mps 735 mmHg 97%
    23:00 -1°C° 0.1 mm 4 mps 735 mmHg 98%

    Day after tomorrow, 27 February, Thursday

    Time Temperature Precipitation Wind Pressure Humidity
    00:00 -1°C° 0.1 mm 4 mps 735 mmHg 98%
    01:00 -1°C° 0.2 mm 4 mps 735 mmHg 98%
    02:00 -1°C° 0.2 mm 4 mps 735 mmHg 98%
    03:00 -1°C° 0.2 mm 4 mps 735 mmHg 98%
    04:00 0°C° 0.1 mm 3 mps 735 mmHg 98%
    05:00 0°C° 0.1 mm 3 mps 735 mmHg 98%
    06:00 0°C° 0.1 mm 3 mps 735 mmHg 98%
    07:00 0°C° 0 mm 3 mps 735 mmHg 98%
    08:00 -1°C° 0 mm 4 mps 735 mmHg 98%
    09:00 -1°C° 0 mm 4 mps 735 mmHg 98%
    10:00 -1°C° 0.1 mm 4 mps 735 mmHg 98%
    11:00 -1°C° 0.1 mm 4 mps 735 mmHg 98%
    12:00 -1°C° 0.1 mm 5 mps 735 mmHg 98%
    13:00 -1°C° 0 mm 5 mps 734 mmHg 98%
    14:00 -1°C° 0 mm 5 mps 734 mmHg 98%
    15:00 0°C° 0 mm 5 mps 734 mmHg 97%
    16:00 -1°C° 0 mm 5 mps 734 mmHg 96%
    17:00 -1°C° 0 mm 5 mps 733 mmHg 95%
    18:00 -1°C° 0 mm 5 mps 733 mmHg 94%
    19:00 -1°C° 0.4 mm 5 mps 733 mmHg 95%
    20:00 -1°C° 0.4 mm 5 mps 733 mmHg 96%
    21:00 0°C° 0.4 mm 5 mps 733 mmHg 96%
    22:00 0°C° 0 mm 5 mps 733 mmHg 97%
    23:00 0°C° 0 mm 5 mps 733 mmHg 97%

    28 February, Friday

    Time Temperature Precipitation Wind Pressure Humidity
    00:00 0°C° 0 mm 5 mps 733 mmHg 98%
    01:00 0°C° 0 mm 5 mps 733 mmHg 98%
    02:00 0°C° 0 mm 4 mps 733 mmHg 98%
    03:00 0°C° 0 mm 4 mps 733 mmHg 98%
    04:00 +1°C° 0 mm 3 mps 733 mmHg 98%
    05:00 +1°C° 0 mm 3 mps 733 mmHg 99%
    06:00 +2°C° 0 mm 2 mps 733 mmHg 99%
    07:00 +1°C° 0.2 mm 3 mps 733 mmHg 98%
    08:00 0°C° 0.2 mm 4 mps 732 mmHg 98%
    09:00 +1°C° 0.2 mm 5 mps 732 mmHg 98%
    10:00 +1°C° 1.3 mm 5 mps 731 mmHg 97%
    11:00 +2°C° 1.3 mm 5 mps 731 mmHg 97%
    12:00 +2°C° 1.3 mm 6 mps 730 mmHg 97%
    13:00 +2°C° 1.5 mm 6 mps 730 mmHg 96%
    14:00 +2°C° 1.5 mm 6 mps 730 mmHg 96%
    15:00 +2°C° 1.5 mm 6 mps 729 mmHg 95%
    16:00 +2°C° 0.9 mm 6 mps 730 mmHg 95%
    17:00 +2°C° 0.9 mm 5 mps 730 mmHg 95%
    18:00 +1°C° 0.9 mm 5 mps 730 mmHg 95%
    19:00 -1°C° 0.4 mm 6 mps 731 mmHg 93%
    20:00 -2°C° 0.4 mm 6 mps 732 mmHg 90%
    21:00 -3°C° 0.4 mm 6 mps 733 mmHg 88%
    22:00 -3°C° 0 mm 6 mps 734 mmHg 87%
    23:00 -4°C° 0 mm 5 mps 735 mmHg 87%

    29 February, Saturday

    Time Temperature Precipitation Wind Pressure Humidity
    00:00 -3°C° 0 mm 4 mps 736 mmHg 86%
    01:00 -3°C° 0 mm 4 mps 737 mmHg 86%
    02:00 -4°C° 0 mm 4 mps 737 mmHg 86%
    03:00 -4°C° 0 mm 4 mps 738 mmHg 87%
    04:00 -4°C° 0 mm 4 mps 738 mmHg 87%
    05:00 -4°C° 0 mm 4 mps 739 mmHg 87%
    06:00 -4°C° 0 mm 4 mps 739 mmHg 87%
    07:00 -4°C° 0 mm 4 mps 740 mmHg 86%
    08:00 -3°C° 0 mm 4 mps 740 mmHg 84%
    09:00 -3°C° 0 mm 4 mps 740 mmHg 83%
    10:00 -2°C° 0 mm 4 mps 741 mmHg 79%
    11:00 -2°C° 0 mm 4 mps 741 mmHg 76%
    12:00 -1°C° 0 mm 4 mps 741 mmHg 73%
    13:00 -1°C° 0 mm 4 mps 741 mmHg 72%
    14:00 -1°C° 0 mm 4 mps 742 mmHg 72%
    15:00 0°C° 0 mm 4 mps 742 mmHg 71%
    16:00 0°C° 0 mm 3 mps 742 mmHg 76%
    17:00 -1°C° 0 mm 3 mps 742 mmHg 80%
    18:00 -2°C° 0 mm 2 mps 742 mmHg 85%
    19:00 -2°C° 0 mm 2 mps 743 mmHg 86%
    20:00 -2°C° 0 mm 2 mps 743 mmHg 88%
    21:00 -2°C° 0 mm 2 mps 744 mmHg 89%
    22:00 -2°C° 0 mm 2 mps 744 mmHg 90%
    23:00 -2°C° 0 mm 2 mps 745 mmHg 90%

    1 March, Sunday

    Time Temperature Precipitation Wind Pressure Humidity
    00:00 -2°C° 0 mm 2 mps 745 mmHg 90%
    01:00 -2°C° 0 mm 2 mps 745 mmHg 90%
    02:00 -3°C° 0 mm 2 mps 746 mmHg 89%
    03:00 -1°C° 0 mm 1 mps 746 mmHg 89%
    04:00 -1°C° 0 mm 1 mps 746 mmHg 89%
    05:00 -1°C° 0 mm 1 mps 746 mmHg 88%
    06:00 -1°C° 0 mm 1 mps 746 mmHg 88%
    07:00 -2°C° 0 mm 2 mps 747 mmHg 86%
    08:00 -2°C° 0 mm 2 mps 747 mmHg 84%
    09:00 -1°C° 0 mm 2 mps 747 mmHg 82%
    10:00 -1°C° 0 mm 2 mps 748 mmHg 78%
    11:00 0°C° 0 mm 3 mps 748 mmHg 75%
    12:00 +1°C° 0 mm 3 mps 748 mmHg 71%
    13:00 +1°C° 0 mm 3 mps 748 mmHg 70%
    14:00 +2°C° 0 mm 3 mps 748 mmHg 69%
    15:00 +2°C° 0 mm 3 mps 748 mmHg 68%
    16:00 +1°C° 0 mm 3 mps 748 mmHg 73%
    17:00 0°C° 0 mm 3 mps 748 mmHg 77%
    18:00 -1°C° 0 mm 3 mps 748 mmHg 82%
    19:00 -1°C° 0 mm 2 mps 749 mmHg 83%
    20:00 -2°C° 0 mm 2 mps 749 mmHg 85%
    21:00 -2°C° 0 mm 2 mps 749 mmHg 86%
    22:00 -2°C° 0 mm 2 mps 749 mmHg 86%
    23:00 -2°C° 0 mm 2 mps 749 mmHg 86%
    Show more